Station 41044 - NE ST MARTIN - 330 NM NE St Martin Is Image indicating link to RSS feed of recent meteorological observations for station 41044


Conditions at 41044 as of
(2:10 am AST)
0610 GMT on 06/24/2024:
     

Click on the graph icon in the table below to see a time series plot of the last five days of that observation.

5-day plot - Wind Direction Wind Direction (WDIR):ESE ( 120 deg true )
5-day plot - Wind Speed Wind Speed (WSPD):8.0 m/s
5-day plot - Wind Gust Wind Gust (GST):11.0 m/s
5-day plot - Atmospheric Pressure Atmospheric Pressure (PRES):1017.3 mb
5-day plot - Air Temperature Air Temperature (ATMP): 28.6 °C
5-day plot - Water Temperature Water Temperature (WTMP): 29.3 °C
5-day plot - Dew Point Dew Point (DEWP): 26.0 °C
5-day plot - Heat Index Heat Index (HEAT): 34.8 °C
5-day plot - Wind Speed at 10 Meters Wind Speed at 10 meters (WSPD10M): 9 m/s
5-day plot - Wind Speed at 20 Meters Wind Speed at 20 meters (WSPD20M): 9 m/s
5-day plot -  Wind Speed, Wind Gust and Atmospheric Pressure Combined plot of Wind Speed, Gust, and Air Pressure
Supplemental Measurements
Highest 1-minute Wind Speed
Time (AST)5-day plot - 1-Minute Wind Speed WSPD 5-day plot - 1-Minute Wind Direction WDIR
2:06 am 10 m/s-
Previous observations
TIME
(AST)
5-day plot - Wind Direction
WDIR
 
5-day plot - Wind Speed
WSPD
m/s
5-day plot - Wind Gust
GST
m/s
5-day plot - Wave Height
WVHT
m
5-day plot - Dominant Wave Period
DPD
sec
5-day plot - Average Wave Period
APD
sec
5-day plot - Mean Wave Direction
MWD
 
5-day plot - Atmospheric Pressure
PRES
mb
5-day plot - Pressure Tendency
PTDY
mb
5-day plot - Air Temperature
ATMP
°C
5-day plot - Water Temperature
WTMP
°C
5-day plot - Dew Point
DEWP
°C
5-day plot - Salinity
SAL
psu
5-day plot - Visibility
VIS
km
5-day plot - Tide (above MLLW)
TIDE
m
2024-06-24 02:00 amESE 7.0 9.0----1017.4 -1.2 29.0 29.3 26.4---
2024-06-24 01:50 amESE 7.0 8.0 1.7 95.5ESE1017.4- 29.1 29.3 26.5---
2024-06-24 01:40 amESE 7.0 9.0 1.7-5.5ESE1017.4- 29.0 29.3 26.5---
2024-06-24 01:30 amESE 7.0 9.0----1017.5- 29.1 29.3 26.5---
2024-06-24 01:20 amESE 7.0 9.0 1.6 95.7 E1017.7- 29.1 29.3 26.5---
2024-06-24 01:10 amESE 7.0 9.0 1.6-5.7 E1017.7- 29.1 29.3 26.5---
2024-06-24 01:00 am E 7.0 9.0----1017.6 -1.2 29.0 29.3 26.6---
2024-06-24 12:50 amESE 7.0 9.0 1.7 95.8 E1017.7- 29.0 29.3 26.5---
2024-06-24 12:40 am E 7.0 9.0----1017.7- 29.1 29.3 26.6---
2024-06-24 12:30 amESE 7.0 8.0----1017.7- 29.1 29.3 26.5---
2024-06-24 12:20 am E 7.0 8.0 1.7 95.8ESE1018.0- 29.0 29.3 26.5---
2024-06-24 12:10 am E 6.0 7.0 1.7-5.8ESE1018.1- 28.9- 26.6---
2024-06-24 12:00 amESE 7.0 10.0----1018.2 -0.4 28.8 29.3 26.5---
2024-06-23 11:50 pm E 7.0 8.0 1.8 96.1 E1018.2- 29.2 29.3 26.7---
2024-06-23 11:40 pm E 7.0 8.0----1018.3- 29.2 29.3 26.5---
2024-06-23 11:30 pm E 7.0 9.0----1018.4- 29.2 29.3 26.6---
2024-06-23 11:20 pm E 7.0 9.0 1.7 95.8 E1018.4- 29.3 29.3 26.8---
2024-06-23 11:10 pm E 7.0 8.0----1018.6- 29.3 29.3 26.7---
2024-06-23 11:00 pm E 6.0 8.0----1018.6 +0.0 29.3 29.3 26.7---
2024-06-23 10:50 pm E 6.0 7.0 1.8 96.1ESE1018.5- 29.2 29.3 26.6---
2024-06-23 10:40 pm E 6.0 7.0----1018.6- 29.3 29.3 26.8---
2024-06-23 10:30 pm E 6.0 8.0----1018.7- 29.3 29.3 26.6---
2024-06-23 10:20 pm E 6.0 8.0 1.7 95.7ESE1018.8- 29.3 29.3 26.6---
2024-06-23 10:10 pm E 6.0 7.0 1.7-5.7ESE1018.8- 29.3 29.3 26.6---
2024-06-23 10:00 pm E 6.0 8.0----1018.8 +0.9 29.4 29.3 26.6---
2024-06-23 09:50 pm E 6.0 7.0 1.9 96.0 E1018.8- 29.4 29.3 26.8---
2024-06-23 09:40 pmESE 6.0 8.0----1018.9- 29.4 29.3 26.7---
2024-06-23 09:30 pm E 7.0 9.0----1018.8- 29.4- 26.6---
2024-06-23 09:20 pm E 7.0 8.0 1.7 95.7 E1018.8- 29.4 29.3 26.7---
2024-06-23 09:10 pm E 7.0 8.0 1.7-5.7 E1018.8- 29.3 29.3 26.7---
2024-06-23 09:00 pm E 7.0 8.0----1018.6 +1.1 29.4 29.3 26.6---
2024-06-23 08:50 pm E 7.0 8.0 1.6 95.8ESE1018.6- 29.4 29.3 26.7---
2024-06-23 08:40 pm E 6.0 8.0 1.6-5.8ESE1018.5- 29.4 29.3 26.7---
2024-06-23 08:30 pm E 6.0 8.0----1018.5- 29.4 29.3 26.7---
2024-06-23 08:20 pm E 6.0 8.0 1.7 85.8 E1018.5- 29.4 29.3 26.6---
2024-06-23 08:10 pm E 6.0 8.0 1.7-5.8 E1018.5- 29.4 29.3 26.7---
2024-06-23 08:00 pm E 6.0 8.0----1018.4 +1.3 29.4 29.3 26.7---
2024-06-23 07:50 pm E 7.0 8.0 1.7 85.6 E1018.3- 29.4 29.3 26.6---
2024-06-23 07:40 pm E 7.0 9.0----1018.3- 29.4 29.3 26.6---
2024-06-23 07:20 pm E 7.0 8.0 1.7 95.5 E1018.1- 29.4 29.3 26.7---
2024-06-23 07:10 pm E 7.0 9.0 1.7-5.5 E1018.0- 29.4 29.2 26.7---
2024-06-23 07:00 pm E 7.0 9.0----1017.9 +0.9 29.5 29.2 26.7---
2024-06-23 06:50 pm E 7.0 9.0 1.8 96.0ESE1017.7- 29.5 29.2 26.7---
2024-06-23 06:40 pm E 7.0 8.0----1017.7- 29.5 29.2 26.7---
2024-06-23 06:30 pm E 7.0 8.0----1017.7- 29.5 29.3 26.6---
2024-06-23 06:20 pm E 7.0 8.0 1.7 106.0 E1017.7- 29.5 29.3 26.6---
2024-06-23 06:10 pm E 7.0 8.0----1017.6- 29.5 29.3 26.7---
2024-06-23 06:00 pm E 7.0 9.0----1017.5 +0.0 29.4 29.3 26.5---
2024-06-23 05:50 pm E 7.0 9.0 1.7 105.9 E1017.5- 29.5 29.3 26.6---
2024-06-23 05:40 pm E 7.0 9.0 1.7-5.9 E1017.4- 29.4 29.3 26.5---
2024-06-23 05:30 pm E 7.0 9.0----1017.4- 29.4 29.4 26.6---
2024-06-23 05:20 pm E 7.0 9.0 1.6 95.9ESE1017.2- 29.5 29.4 26.7---
2024-06-23 05:10 pm E 7.0 8.0 1.6-5.9ESE1017.2- 29.5 29.4 26.6---
2024-06-23 05:00 pm E 7.0 9.0----1017.1 -0.6 29.6 29.4 26.5---
2024-06-23 04:50 pm E 6.0 8.0 1.6 105.6ESE1017.0- 29.6 29.4 26.6---
2024-06-23 04:40 pm E 6.0 8.0 1.6-5.6ESE1017.0- 29.5 29.4 26.7---
2024-06-23 04:30 pm E 7.0 8.0----1017.0- 29.6 29.4 26.6---
2024-06-23 04:20 pm E 7.0 9.0 1.8 85.9ESE1017.0- 29.6 29.3 26.5---
2024-06-23 04:10 pm E 7.0 9.0 1.8-5.9ESE1017.0- 29.5 29.4 26.6---
2024-06-23 04:00 pmESE 6.0 8.0----1017.0 -1.0 29.1 29.4 25.7---
2024-06-23 03:50 pm E 7.0 10.0 1.7 105.6ESE1017.0- 29.2 29.4 26.2---
2024-06-23 03:40 pm E 7.0 9.0 1.7-5.6ESE1017.1- 29.4 29.3 26.5---
2024-06-23 03:30 pm E 8.0 10.0----1017.2- 29.5 29.4 26.5---
2024-06-23 03:20 pm E 7.0 9.0 1.7 95.7 E1017.2- 29.6 29.3 26.6---
2024-06-23 03:10 pm E 7.0 9.0 1.7-5.7 E1017.3- 29.6 29.4 26.8---
2024-06-23 03:00 pm E 7.0 8.0----1017.3 -0.8 29.6 29.4 26.8---
2024-06-23 02:50 pm E 7.0 9.0 1.8 95.8 E1017.4- 29.6 29.3 26.7---
2024-06-23 02:40 pm E 7.0 9.0----1017.4- 29.6 29.3 26.7---
2024-06-23 02:30 pm E 7.0 8.0----1017.4- 29.6 29.3 26.7---
2024-06-23 02:20 pm E 7.0 9.0 1.7 95.8 E1017.5- 29.5 29.3 26.5---
2024-06-23 02:10 pm E 7.0 8.0 1.7-5.8 E1017.7- 29.5 29.3 26.7---
2024-06-23 02:00 pm E 7.0 9.0----1017.7 -0.5 29.5 29.3 26.5---
2024-06-23 01:50 pm E 7.0 9.0 1.6 85.5 E1017.9- 29.4 29.3 26.5---
2024-06-23 01:40 pm E 7.0 9.0----1018.0- 29.5 29.3 26.6---
2024-06-23 01:30 pm E 7.0 9.0----1018.0- 29.5 29.3 26.4---
2024-06-23 01:20 pm E 7.0 9.0 1.7 85.8ESE1017.9- 29.5 29.3 26.4---
2024-06-23 01:10 pm E 7.0 9.0 1.7-5.8ESE1017.9- 29.4 29.3 26.7---
2024-06-23 01:00 pm E 7.0 9.0----1018.0 -0.3 29.5 29.3 26.8---
2024-06-23 12:50 pm E 7.0 9.0 1.7 95.7 E1018.1- 29.5 29.3 26.6---
2024-06-23 12:40 pm E 7.0 9.0 1.7-5.7 E1018.3- 29.5 29.3 26.6---
2024-06-23 12:30 pm E 7.0 9.0----1018.2- 29.5 29.3 26.6---
2024-06-23 12:20 pm E 7.0 9.0 1.6 85.8 E1018.2- 29.5 29.3 26.6---
2024-06-23 12:10 pm E 7.0 9.0 1.6-5.8 E1018.2- 29.4 29.3 26.5---
2024-06-23 12:00 pm E 7.0 9.0----1018.1 +0.0 29.4 29.3 26.4---
2024-06-23 11:50 am E 7.0 8.0 1.5 85.5ESE1018.1- 29.5 29.3 26.4---
2024-06-23 11:40 am E 7.0 9.0----1018.3- 29.5 29.3 26.4---
2024-06-23 11:30 am E 6.0 7.0----1018.3- 29.4 29.3 26.7---
2024-06-23 11:20 am E 6.0 8.0 1.6 85.7 E1018.3- 29.5 29.2 26.6---
2024-06-23 11:10 am E 7.0 8.0 1.6-5.7 E1018.3- 29.5 29.2 26.4---
2024-06-23 11:00 am E 7.0 9.0----1018.2 +0.7 29.5 29.2 26.4---
2024-06-23 10:50 am E 7.0 8.0 1.5 95.7ESE1018.3- 29.5 29.2 26.4---
2024-06-23 10:40 am E 6.0 8.0 1.5-5.7ESE1018.3- 29.4 29.2 26.5---
2024-06-23 10:30 am E 7.0 8.0----1018.3- 29.4 29.1 26.3---
2024-06-23 10:20 am E 7.0 8.0 1.5 95.7ESE1018.3- 29.4 29.1 26.4---
2024-06-23 10:10 am E 6.0 8.0 1.5-5.7ESE1018.3- 29.4 29.1 26.4---
2024-06-23 10:00 am E 6.0 8.0----1018.3 +1.1 29.4 29.1 26.4---
2024-06-23 09:50 am E 6.0 8.0 1.7 85.9ESE1018.3- 29.4 29.1 26.4---
2024-06-23 09:40 am E 7.0 8.0----1018.3- 29.5 29.1 26.3---
2024-06-23 09:30 am E 7.0 9.0----1018.2- 29.4 29.1 26.4---
2024-06-23 09:20 am E 6.0 9.0 1.5 95.8 E1018.1- 29.3 29.1 26.4---
2024-06-23 09:10 am E 6.0 8.0 1.5-5.8 E1018.0- 29.4 29.1 26.4---
2024-06-23 09:00 am E 6.0 8.0----1017.9 +1.1 29.4 29.1 26.4---
2024-06-23 08:50 am E 6.0 7.0 1.5 85.6 E1017.8- 29.3 29.1 26.4---
2024-06-23 08:40 am E 6.0 7.0----1017.8- 29.3 29.1 26.4---
2024-06-23 08:30 am E 6.0 7.0----1017.7- 29.3 29.1 26.4---
2024-06-23 08:20 am E 6.0 7.0 1.5 85.6 E1017.7- 29.2 29.1 26.2---
2024-06-23 08:10 am E 6.0 7.0 1.5-5.6 E1017.6- 29.3 29.1 26.2---
2024-06-23 08:00 am E 6.0 7.0----1017.5 +1.1 29.2 29.1 26.3---
2024-06-23 07:50 am E 6.0 7.0 1.5 95.6ESE1017.5- 29.3 29.1 26.2---
2024-06-23 07:40 am E 6.0 7.0----1017.5- 29.3 29.0 26.2---
2024-06-23 07:30 am E 6.0 7.0----1017.4- 29.3 29.0 26.1---
2024-06-23 07:20 am E 6.0 8.0 1.6 85.7 E1017.3- 29.3 29.0 26.0---
2024-06-23 07:10 am E 6.0 8.0 1.6-5.7 E1017.3- 29.3 29.0 26.1---
2024-06-23 07:00 am E 6.0 8.0----1017.2 +1.1 29.2 29.1 26.1---
2024-06-23 06:50 am E 6.0 8.0 1.5 95.6ESE1017.2- 29.2 29.1 26.2---
2024-06-23 06:40 am E 7.0 8.0 1.5-5.6ESE1017.1- 29.2 29.1 26.0---
2024-06-23 06:30 am E 6.0 8.0----1017.0- 29.2 29.1 26.0---
2024-06-23 06:20 am E 6.0 8.0 1.5 95.6ESE1016.9- 29.2 29.1 26.3---
2024-06-23 06:10 am E 6.0 7.0 1.5-5.6ESE1016.9- 29.1 29.1 26.1---
2024-06-23 06:00 am E 6.0 8.0----1016.8 +0.8 29.1 29.1 26.0---
2024-06-23 05:50 am E 6.0 8.0 1.5 95.7ESE1016.8- 29.1 29.1 26.1---
2024-06-23 05:40 am E 6.0 8.0----1016.7- 29.0 29.1 25.9---
2024-06-23 05:30 am E 5.0 8.0----1016.6- 28.8 29.1 26.0---
2024-06-23 05:20 am E 6.0 7.0 1.4 95.5ESE1016.5- 28.9 29.1 26.1---
2024-06-23 05:10 am E 6.0 8.0 1.4-5.5ESE1016.5- 29.0 29.1 26.1---
2024-06-23 05:00 am E 6.0 8.0----1016.4 +0.3 29.0 29.1 26.1---
2024-06-23 04:50 am E 7.0 9.0 1.4 85.6 E1016.4- 28.9 29.1 26.1---
2024-06-23 04:40 am E 6.0 8.0 1.4-5.6 E1016.4- 29.0 29.1 26.3---
2024-06-23 04:30 am E 6.0 8.0----1016.3- 29.0 29.1 26.2---
2024-06-23 04:20 am E 6.0 7.0 1.4 85.6 E1016.2- 29.0 29.1 26.2---
2024-06-23 04:10 am E 6.0 8.0 1.4-5.6 E1016.2- 29.0 29.1 26.1---
2024-06-23 04:00 am E 6.0 7.0----1016.1 +0.0 29.0 29.1 26.2---
2024-06-23 03:50 am E 6.0 8.0 1.4 95.6ESE1016.1- 28.9 29.1 26.1---
2024-06-23 03:40 amENE 5.0 6.0----1016.1- 28.5 29.1 25.9---
2024-06-23 03:30 amENE 7.0 8.0----1016.1- 28.2 29.1 25.7---
2024-06-23 03:20 amENE 7.0 9.0 1.4 85.4ENE1016.1- 28.3 29.1 26.0---
2024-06-23 03:10 amENE 7.0 10.0 1.4-5.4ENE1016.0- 28.8 29.1 26.2---
2024-06-23 03:00 amENE 6.0 8.0----1016.0 -0.6 28.8 29.1 26.0---
2024-06-23 02:50 amENE 6.0 8.0 1.4 85.6 E1016.0- 28.5 29.1 26.0---
2024-06-23 02:40 am E 6.0 10.0 1.4-5.6 E1016.1- 27.9 29.1 25.3---
2024-06-23 02:30 amENE 7.0 9.0----1016.0- 28.9 29.1 26.1---
2024-06-23 02:20 am E 5.0 7.0 1.4 85.5 E1016.1- 28.9 29.1 26.2---
2024-06-23 02:10 am E 5.0 7.0 1.4-5.5 E1016.1- 28.9 29.1 26.1---
2024-06-23 02:00 am E 6.0 7.0----1016.1 -1.1 28.9 29.1 26.0---
2024-06-23 01:50 am E 6.0 7.0 1.4 85.7ESE1016.0- 28.9 29.1 26.0---

Detailed Wave Summary
for 41044 as of (1:40 am AST)
0540 GMT on 06/24/2024:

These wave data are displayed in rounded times.

     

Click on the graph icon in the table below to see a time series plot of the last five days of that observation.

5-day plot - Significant Wave Height Significant Wave Height (WVHT): 1.7 m
5-day plot - Swell Height Swell Height (SwH): 1.2 m
5-day plot - Swell Period Swell Period (SwP): 9.1 sec
5-day plot - Swell Direction Swell Direction (SwD):ESE
5-day plot - Wind Wave Height Wind Wave Height (WWH): 1.2 m
5-day plot - Wind Wave Period Wind Wave Period (WWP): 6.2 sec
5-day plot - Wind Wave Direction Wind Wave Direction (WWD): E
5-day plot - Wave Steepness Wave Steepness (STEEPNESS): AVERAGE
5-day plot - Average Wave Period Average Wave Period (APD): 5.5 sec
Previous observations
TIME
(AST)
5-day plot - Wave Height
WVHT
m
5-day plot - Swell Height
SwH
m
5-day plot - Swell Period
SwP
sec
5-day plot - Swell Direction
SwD
 
5-day plot - Wind Wave Height
WWH
m
5-day plot - Wind Wave Period
WWP
sec
5-day plot - Wind Wave Direction
WWD
 
5-day plot - Wave Steepness
STEEPNESS
 
5-day plot - Average Wave Period
APD
sec
2024-06-24 01:10 am 1.6 1.2 9.1 E 1.1 5.9 ESE AVERAGE 5.7
2024-06-24 12:40 am 1.7 1.3 9.1 E 1.2 6.7 ESE AVERAGE 5.8
2024-06-24 12:10 am 1.7 1.4 9.1ESE 0.9 5.0 ESE AVERAGE 5.8
2024-06-23 11:40 pm 1.8 1.4 9.1 E 1.1 6.7 E AVERAGE 6.1
2024-06-23 11:10 pm 1.7 1.3 9.1 E 1.1 5.9 ESE AVERAGE 5.8
2024-06-23 10:40 pm 1.8 1.6 9.1ESE 0.8 5.3 ESE AVERAGE 6.1
2024-06-23 10:10 pm 1.7 1.5 9.1ESE 0.9 4.8 ESE AVERAGE 5.7
2024-06-23 09:40 pm 1.9 1.6 9.1 E 1.1 5.3 ESE AVERAGE 6.0
2024-06-23 09:10 pm 1.7 1.3 9.1 E 1.1 6.2 E AVERAGE 5.7
2024-06-23 08:40 pm 1.6 1.3 9.1ESE 1.0 5.6 ESE AVERAGE 5.8
2024-06-23 08:10 pm 1.7 1.4 8.3 E 1.1 5.6 E AVERAGE 5.8
2024-06-23 07:40 pm 1.7 1.2 7.7 E 1.2 6.2 ESE STEEP 5.6
2024-06-23 07:10 pm 1.7 1.1 9.1 E 1.3 5.9 E AVERAGE 5.5
2024-06-23 06:40 pm 1.8 1.5 9.1ESE 1.1 5.6 ESE AVERAGE 6.0
2024-06-23 06:10 pm 1.7 1.4 10.0 E 1.0 6.2 E SWELL 6.0
2024-06-23 05:40 pm 1.7 1.3 10.0 E 1.2 5.9 E SWELL 5.9
2024-06-23 05:10 pm 1.6 1.3 9.1ESE 1.0 5.9 E AVERAGE 5.9
2024-06-23 04:40 pm 1.6 1.3 10.0ESE 1.0 4.8 E SWELL 5.6
2024-06-23 04:10 pm 1.8 1.3 8.3ESE 1.1 5.6 E AVERAGE 5.9
2024-06-23 03:40 pm 1.7 1.2 10.0ESE 1.2 5.0 E SWELL 5.6
2024-06-23 03:10 pm 1.7 1.2 9.1 E 1.1 5.3 ESE AVERAGE 5.7
2024-06-23 02:40 pm 1.8 1.4 9.1 E 1.1 4.8 ESE AVERAGE 5.8
2024-06-23 02:10 pm 1.7 1.4 9.1 E 1.1 6.2 ESE AVERAGE 5.8
2024-06-23 01:40 pm 1.6 1.0 7.7 E 1.3 5.9 ESE AVERAGE 5.5
2024-06-23 01:10 pm 1.7 1.3 8.3ESE 1.0 5.6 ESE AVERAGE 5.8
2024-06-23 12:40 pm 1.7 1.2 9.1 E 1.2 6.7 ENE AVERAGE 5.7
2024-06-23 12:10 pm 1.6 1.2 7.7 E 1.0 6.2 ENE AVERAGE 5.8
2024-06-23 11:40 am 1.5 1.1 8.3ESE 1.1 5.6 E AVERAGE 5.5
2024-06-23 11:10 am 1.6 1.3 8.3 E 1.0 5.0 E AVERAGE 5.7
2024-06-23 10:40 am 1.5 1.2 9.1ESE 0.9 5.9 E AVERAGE 5.7
2024-06-23 10:10 am 1.5 1.2 9.1ESE 0.9 5.0 E AVERAGE 5.7
2024-06-23 09:40 am 1.7 1.4 8.3ESE 0.9 5.6 E AVERAGE 5.9
2024-06-23 09:10 am 1.5 1.3 9.1 E 0.9 4.3 ESE AVERAGE 5.8
2024-06-23 08:40 am 1.5 1.3 8.3 E 0.8 5.0 ESE AVERAGE 5.6
2024-06-23 08:10 am 1.5 1.2 8.3 E 0.9 4.8 ESE AVERAGE 5.6
2024-06-23 07:40 am 1.5 1.3 9.1ESE 0.8 4.0 E AVERAGE 5.6
2024-06-23 07:10 am 1.6 1.3 8.3 E 0.9 4.8 ESE AVERAGE 5.7
2024-06-23 06:40 am 1.5 1.1 9.1ESE 0.9 5.6 E SWELL 5.6
2024-06-23 06:10 am 1.5 1.2 9.1ESE 0.9 5.0 ESE AVERAGE 5.6
2024-06-23 05:40 am 1.5 1.3 9.1ESE 0.9 5.0 ESE AVERAGE 5.7
2024-06-23 05:10 am 1.4 1.1 9.1ESE 0.9 4.5 E SWELL 5.5
2024-06-23 04:40 am 1.4 1.2 8.3 E 0.8 5.0 ESE AVERAGE 5.6
2024-06-23 04:10 am 1.4 1.1 8.3 E 0.8 5.6 ENE AVERAGE 5.6
2024-06-23 03:40 am 1.4 1.2 9.1ESE 0.7 4.3 E SWELL 5.6
2024-06-23 03:10 am 1.4 1.1 7.7ENE 0.9 6.2 NE AVERAGE 5.4
2024-06-23 02:40 am 1.4 1.2 8.3 E 0.8 5.0 ESE AVERAGE 5.6
2024-06-23 02:10 am 1.4 1.2 8.3 E 0.7 4.3 E AVERAGE 5.5

Plot of wave energy versus frequency (and period)